owner,sensor,date,latitude,longitude,vertical_datum,sea_water_practical_salinity,qcFlag 
SCCF RECON,ioos:station:SCCF:12:1,2008-12-01T00:00:00Z,26.4966,-82.1479,2.285,33.22,1111122 
SCCF RECON,ioos:station:SCCF:12:1,2008-12-01T01:00:00Z,26.4966,-82.1479,2.211,33.03,1111122 
SCCF RECON,ioos:station:SCCF:12:1,2008-12-01T02:00:00Z,26.4966,-82.1479,2.19,32.84,1111122 
SCCF RECON,ioos:station:SCCF:12:1,2008-12-01T03:00:00Z,26.4966,-82.1479,2.249,32.86,1111122 
SCCF RECON,ioos:station:SCCF:12:1,2008-12-01T04:00:00Z,26.4966,-82.1479,2.37,32.7,1111122 
SCCF RECON,ioos:station:SCCF:12:1,2008-12-01T05:00:00Z,26.4966,-82.1479,2.496,32.57,1111122 
SCCF RECON,ioos:station:SCCF:12:1,2008-12-01T06:00:00Z,26.4966,-82.1479,2.55,32.65,1111122 
SCCF RECON,ioos:station:SCCF:12:1,2008-12-01T07:00:00Z,26.4966,-82.1479,2.481,32.79,1111122 
SCCF RECON,ioos:station:SCCF:12:1,2008-12-01T08:00:00Z,26.4966,-82.1479,2.37,32.83,1111122 
SCCF RECON,ioos:station:SCCF:12:1,2008-12-01T09:00:00Z,26.4966,-82.1479,2.296,32.86,1111122 
SCCF RECON,ioos:station:SCCF:12:1,2008-12-01T10:00:00Z,26.4966,-82.1479,2.2,32.9,1111122 
SCCF RECON,ioos:station:SCCF:12:1,2008-12-01T11:00:00Z,26.4966,-82.1479,2.115,32.9,1111122 
SCCF RECON,ioos:station:SCCF:12:1,2008-12-01T12:00:00Z,26.4966,-82.1479,2.033,32.94,1111122 
SCCF RECON,ioos:station:SCCF:12:1,2008-12-01T13:00:00Z,26.4966,-82.1479,1.967,33.01,1111122 
SCCF RECON,ioos:station:SCCF:12:1,2008-12-01T14:00:00Z,26.4966,-82.1479,1.871,33.07,1111122 
SCCF RECON,ioos:station:SCCF:12:1,2008-12-01T15:00:00Z,26.4966,-82.1479,1.783,33.06,1111122 
SCCF RECON,ioos:station:SCCF:12:1,2008-12-01T16:00:00Z,26.4966,-82.1479,1.756,33.08,1111122 
SCCF RECON,ioos:station:SCCF:12:1,2008-12-01T17:00:00Z,26.4966,-82.1479,1.852,32.89,1111122 
SCCF RECON,ioos:station:SCCF:12:1,2008-12-01T18:00:00Z,26.4966,-82.1479,1.99,32.86,1111122 
SCCF RECON,ioos:station:SCCF:12:1,2008-12-01T19:00:00Z,26.4966,-82.1479,2.12,33.1,1111122 
SCCF RECON,ioos:station:SCCF:12:1,2008-12-01T20:00:00Z,26.4966,-82.1479,2.202,32.98,1111122 
SCCF RECON,ioos:station:SCCF:12:1,2008-12-01T21:00:00Z,26.4966,-82.1479,2.21,32.88,1111122 
SCCF RECON,ioos:station:SCCF:12:1,2008-12-01T22:00:00Z,26.4966,-82.1479,2.165,32.87,1111122 
SCCF RECON,ioos:station:SCCF:12:1,2008-12-01T23:00:00Z,26.4966,-82.1479,2.102,32.91,1111122 
SCCF RECON,ioos:station:SCCF:12:1,2008-12-02T00:00:00Z,26.4966,-82.1479,2.073,32.92,1111122 
SCCF RECON,ioos:station:SCCF:12:1,2008-12-02T01:00:00Z,26.4966,-82.1479,2.12,32.91,1111122 
SCCF RECON,ioos:station:SCCF:12:1,2008-12-02T02:00:00Z,26.4966,-82.1479,2.19,32.86,1111122 
SCCF RECON,ioos:station:SCCF:12:1,2008-12-02T03:00:00Z,26.4966,-82.1479,2.26,33.25,1111122 
SCCF RECON,ioos:station:SCCF:12:1,2008-12-02T04:00:00Z,26.4966,-82.1479,2.31,33.28,1111122 
SCCF RECON,ioos:station:SCCF:12:1,2008-12-02T05:00:00Z,26.4966,-82.1479,2.367,33.05,1111122 
SCCF RECON,ioos:station:SCCF:12:1,2008-12-02T06:00:00Z,26.4966,-82.1479,2.4,33.02,1111122 
SCCF RECON,ioos:station:SCCF:12:1,2008-12-02T07:00:00Z,26.4966,-82.1479,2.395,33.03,1111122 
SCCF RECON,ioos:station:SCCF:12:1,2008-12-02T08:00:00Z,26.4966,-82.1479,2.39,33.17,1111122 
SCCF RECON,ioos:station:SCCF:12:1,2008-12-02T09:00:00Z,26.4966,-82.1479,2.37,33.06,1111122 
SCCF RECON,ioos:station:SCCF:12:1,2008-12-02T10:00:00Z,26.4966,-82.1479,2.412,33.11,1111122 
SCCF RECON,ioos:station:SCCF:12:1,2008-12-02T11:00:00Z,26.4966,-82.1479,2.338,33.14,1111122 
SCCF RECON,ioos:station:SCCF:12:1,2008-12-02T12:00:00Z,26.4966,-82.1479,2.27,33.18,1111122 
SCCF RECON,ioos:station:SCCF:12:1,2008-12-02T13:00:00Z,26.4966,-82.1479,2.119,33.35,1111122 
SCCF RECON,ioos:station:SCCF:12:1,2008-12-02T14:00:00Z,26.4966,-82.1479,1.971,33.35,1111122 
SCCF RECON,ioos:station:SCCF:12:1,2008-12-02T15:00:00Z,26.4966,-82.1479,1.824,33.41,1111122 
SCCF RECON,ioos:station:SCCF:12:1,2008-12-02T16:00:00Z,26.4966,-82.1479,1.709,33.77,1111122 
SCCF RECON,ioos:station:SCCF:12:1,2008-12-02T17:00:00Z,26.4966,-82.1479,1.646,33.81,1111122 
SCCF RECON,ioos:station:SCCF:12:1,2008-12-02T18:00:00Z,26.4966,-82.1479,1.723,33.73,1111122 
SCCF RECON,ioos:station:SCCF:12:1,2008-12-02T19:00:00Z,26.4966,-82.1479,1.893,33.7,1111122 
SCCF RECON,ioos:station:SCCF:12:1,2008-12-02T20:00:00Z,26.4966,-82.1479,1.982,33.8,1111122 
SCCF RECON,ioos:station:SCCF:12:1,2008-12-02T21:00:00Z,26.4966,-82.1479,2.027,33.72,1111122 
SCCF RECON,ioos:station:SCCF:12:1,2008-12-02T22:00:00Z,26.4966,-82.1479,2.028,33.75,1111122 
SCCF RECON,ioos:station:SCCF:12:1,2008-12-02T23:00:00Z,26.4966,-82.1479,1.989,33.75,1111122 
SCCF RECON,ioos:station:SCCF:12:1,2008-12-03T00:00:00Z,26.4966,-82.1479,1.964,34.04,1111122 
SCCF RECON,ioos:station:SCCF:12:1,2008-12-03T01:00:00Z,26.4966,-82.1479,1.956,34.34,1111122 
SCCF RECON,ioos:station:SCCF:12:1,2008-12-03T02:00:00Z,26.4966,-82.1479,1.989,34.63,1111122 
SCCF RECON,ioos:station:SCCF:12:1,2008-12-03T03:00:00Z,26.4966,-82.1479,2.033,34.83,1111122 
SCCF RECON,ioos:station:SCCF:12:1,2008-12-03T04:00:00Z,26.4966,-82.1479,2.08,34.92,1111122 
SCCF RECON,ioos:station:SCCF:12:1,2008-12-03T05:00:00Z,26.4966,-82.1479,2.152,34.93,1111122 
SCCF RECON,ioos:station:SCCF:12:1,2008-12-03T06:00:00Z,26.4966,-82.1479,2.208,35.0,1111122 
SCCF RECON,ioos:station:SCCF:12:1,2008-12-03T07:00:00Z,26.4966,-82.1479,2.229,35.07,1111122 
SCCF RECON,ioos:station:SCCF:12:1,2008-12-03T08:00:00Z,26.4966,-82.1479,2.237,35.13,1111122 
SCCF RECON,ioos:station:SCCF:12:1,2008-12-03T09:00:00Z,26.4966,-82.1479,2.228,35.21,1111122 
SCCF RECON,ioos:station:SCCF:12:1,2008-12-03T10:00:00Z,26.4966,-82.1479,2.189,35.2,1111122 
SCCF RECON,ioos:station:SCCF:12:1,2008-12-03T11:00:00Z,26.4966,-82.1479,2.119,35.19,1111122 
SCCF RECON,ioos:station:SCCF:12:1,2008-12-03T12:00:00Z,26.4966,-82.1479,2.032,35.22,1111122 
SCCF RECON,ioos:station:SCCF:12:1,2008-12-03T13:00:00Z,26.4966,-82.1479,1.955,35.12,1111122 
SCCF RECON,ioos:station:SCCF:12:1,2008-12-03T14:00:00Z,26.4966,-82.1479,1.871,35.05,1111122 
SCCF RECON,ioos:station:SCCF:12:1,2008-12-03T15:00:00Z,26.4966,-82.1479,1.798,35.07,1111122 
SCCF RECON,ioos:station:SCCF:12:1,2008-12-03T16:00:00Z,26.4966,-82.1479,1.749,35.13,1111122 
SCCF RECON,ioos:station:SCCF:12:1,2008-12-03T17:00:00Z,26.4966,-82.1479,1.764,35.19,1111122 
SCCF RECON,ioos:station:SCCF:12:1,2008-12-03T18:00:00Z,26.4966,-82.1479,1.859,35.25,1111122 
SCCF RECON,ioos:station:SCCF:12:1,2008-12-03T19:00:00Z,26.4966,-82.1479,1.961,35.31,1111122 
SCCF RECON,ioos:station:SCCF:12:1,2008-12-03T20:00:00Z,26.4966,-82.1479,2.06,35.22,1111122 
SCCF RECON,ioos:station:SCCF:12:1,2008-12-03T21:00:00Z,26.4966,-82.1479,2.13,35.23,1111122 
SCCF RECON,ioos:station:SCCF:12:1,2008-12-03T22:00:00Z,26.4966,-82.1479,2.174,34.9,1111122 
SCCF RECON,ioos:station:SCCF:12:1,2008-12-03T23:00:00Z,26.4966,-82.1479,2.18,34.79,1111122 
SCCF RECON,ioos:station:SCCF:12:1,2008-12-04T00:00:00Z,26.4966,-82.1479,2.16,34.76,1111122 
SCCF RECON,ioos:station:SCCF:12:1,2008-12-04T01:00:00Z,26.4966,-82.1479,2.129,34.51,1111122 
SCCF RECON,ioos:station:SCCF:12:1,2008-12-04T02:00:00Z,26.4966,-82.1479,2.102,34.4,1111122 
SCCF RECON,ioos:station:SCCF:12:1,2008-12-04T03:00:00Z,26.4966,-82.1479,2.1,34.37,1111122 
SCCF RECON,ioos:station:SCCF:12:1,2008-12-04T04:00:00Z,26.4966,-82.1479,2.1,34.41,1111122 
SCCF RECON,ioos:station:SCCF:12:1,2008-12-04T05:00:00Z,26.4966,-82.1479,2.12,34.37,1111122 
SCCF RECON,ioos:station:SCCF:12:1,2008-12-04T06:00:00Z,26.4966,-82.1479,2.16,34.54,1111122 
SCCF RECON,ioos:station:SCCF:12:1,2008-12-04T07:00:00Z,26.4966,-82.1479,2.22,34.69,1111122 
SCCF RECON,ioos:station:SCCF:12:1,2008-12-04T08:00:00Z,26.4966,-82.1479,2.27,34.79,1111122 
SCCF RECON,ioos:station:SCCF:12:1,2008-12-04T09:00:00Z,26.4966,-82.1479,2.302,34.8,1111122 
SCCF RECON,ioos:station:SCCF:12:1,2008-12-04T10:00:00Z,26.4966,-82.1479,2.29,34.78,1111122 
SCCF RECON,ioos:station:SCCF:12:1,2008-12-04T11:00:00Z,26.4966,-82.1479,2.24,34.77,1111122 
SCCF RECON,ioos:station:SCCF:12:1,2008-12-04T12:00:00Z,26.4966,-82.1479,2.155,34.56,1111122 
SCCF RECON,ioos:station:SCCF:12:1,2008-12-04T13:00:00Z,26.4966,-82.1479,2.068,34.68,1111122 
SCCF RECON,ioos:station:SCCF:12:1,2008-12-04T14:00:00Z,26.4966,-82.1479,1.99,34.6,1111122 
SCCF RECON,ioos:station:SCCF:12:1,2008-12-04T15:00:00Z,26.4966,-82.1479,1.914,34.56,1111122 
SCCF RECON,ioos:station:SCCF:12:1,2008-12-04T16:00:00Z,26.4966,-82.1479,1.862,34.62,1111122 
SCCF RECON,ioos:station:SCCF:12:1,2008-12-04T17:00:00Z,26.4966,-82.1479,1.843,34.7,1111122 
SCCF RECON,ioos:station:SCCF:12:1,2008-12-04T18:00:00Z,26.4966,-82.1479,1.86,34.73,1111122 
SCCF RECON,ioos:station:SCCF:12:1,2008-12-04T19:00:00Z,26.4966,-82.1479,1.96,34.78,1111122 
SCCF RECON,ioos:station:SCCF:12:1,2008-12-04T20:00:00Z,26.4966,-82.1479,2.062,34.85,1111122 
SCCF RECON,ioos:station:SCCF:12:1,2008-12-04T21:00:00Z,26.4966,-82.1479,2.149,34.81,1111122 
SCCF RECON,ioos:station:SCCF:12:1,2008-12-04T22:00:00Z,26.4966,-82.1479,2.211,34.81,1111122 
SCCF RECON,ioos:station:SCCF:12:1,2008-12-04T23:00:00Z,26.4966,-82.1479,2.25,34.79,1111122 
SCCF RECON,ioos:station:SCCF:12:1,2008-12-05T00:00:00Z,26.4966,-82.1479,2.26,34.76,1111122 
SCCF RECON,ioos:station:SCCF:12:1,2008-12-05T01:00:00Z,26.4966,-82.1479,2.25,34.7,1111122 
SCCF RECON,ioos:station:SCCF:12:1,2008-12-05T02:00:00Z,26.4966,-82.1479,2.19,34.61,1111122 
SCCF RECON,ioos:station:SCCF:12:1,2008-12-05T03:00:00Z,26.4966,-82.1479,2.14,34.66,1111122 
SCCF RECON,ioos:station:SCCF:12:1,2008-12-05T04:00:00Z,26.4966,-82.1479,2.1,34.68,1111122 
SCCF RECON,ioos:station:SCCF:12:1,2008-12-05T05:00:00Z,26.4966,-82.1479,2.074,34.49,1111122 
SCCF RECON,ioos:station:SCCF:12:1,2008-12-05T06:00:00Z,26.4966,-82.1479,2.08,34.6,1111122 
SCCF RECON,ioos:station:SCCF:12:1,2008-12-05T07:00:00Z,26.4966,-82.1479,2.11,34.82,1111122 
SCCF RECON,ioos:station:SCCF:12:1,2008-12-05T08:00:00Z,26.4966,-82.1479,2.162,34.73,1111122 
SCCF RECON,ioos:station:SCCF:12:1,2008-12-05T09:00:00Z,26.4966,-82.1479,2.21,34.74,1111122 
SCCF RECON,ioos:station:SCCF:12:1,2008-12-05T10:00:00Z,26.4966,-82.1479,2.24,34.73,1111122 
SCCF RECON,ioos:station:SCCF:12:1,2008-12-05T11:00:00Z,26.4966,-82.1479,2.239,34.73,1111122 
SCCF RECON,ioos:station:SCCF:12:1,2008-12-05T12:00:00Z,26.4966,-82.1479,2.209,34.73,1111122 
SCCF RECON,ioos:station:SCCF:12:1,2008-12-05T13:00:00Z,26.4966,-82.1479,2.162,34.7,1111122 
SCCF RECON,ioos:station:SCCF:12:1,2008-12-05T14:00:00Z,26.4966,-82.1479,2.093,34.44,1111122 
SCCF RECON,ioos:station:SCCF:12:1,2008-12-05T15:00:00Z,26.4966,-82.1479,2.01,34.46,1111122 
SCCF RECON,ioos:station:SCCF:12:1,2008-12-05T16:00:00Z,26.4966,-82.1479,1.94,34.41,1111122 
SCCF RECON,ioos:station:SCCF:12:1,2008-12-05T17:00:00Z,26.4966,-82.1479,1.893,34.39,1111122 
SCCF RECON,ioos:station:SCCF:12:1,2008-12-05T18:00:00Z,26.4966,-82.1479,1.896,34.24,1111122 
SCCF RECON,ioos:station:SCCF:12:1,2008-12-05T19:00:00Z,26.4966,-82.1479,1.96,34.66,1111122 
SCCF RECON,ioos:station:SCCF:12:1,2008-12-05T20:00:00Z,26.4966,-82.1479,2.05,34.65,1111122 
SCCF RECON,ioos:station:SCCF:12:1,2008-12-05T21:00:00Z,26.4966,-82.1479,2.14,34.65,1111122 
SCCF RECON,ioos:station:SCCF:12:1,2008-12-05T22:00:00Z,26.4966,-82.1479,2.215,34.65,1111122 
SCCF RECON,ioos:station:SCCF:12:1,2008-12-05T23:00:00Z,26.4966,-82.1479,2.28,34.65,1111122 
SCCF RECON,ioos:station:SCCF:12:1,2008-12-06T00:00:00Z,26.4966,-82.1479,2.307,34.56,1111122 
SCCF RECON,ioos:station:SCCF:12:1,2008-12-06T01:00:00Z,26.4966,-82.1479,2.29,34.49,1111122 
SCCF RECON,ioos:station:SCCF:12:1,2008-12-06T02:00:00Z,26.4966,-82.1479,2.23,34.21,1111122 
SCCF RECON,ioos:station:SCCF:12:1,2008-12-06T03:00:00Z,26.4966,-82.1479,2.15,34.37,1111122 
SCCF RECON,ioos:station:SCCF:12:1,2008-12-06T04:00:00Z,26.4966,-82.1479,2.09,34.37,1111122 
SCCF RECON,ioos:station:SCCF:12:1,2008-12-06T05:00:00Z,26.4966,-82.1479,2.04,34.35,1111122 
SCCF RECON,ioos:station:SCCF:12:1,2008-12-06T06:00:00Z,26.4966,-82.1479,2.01,34.43,1111122 
SCCF RECON,ioos:station:SCCF:12:1,2008-12-06T07:00:00Z,26.4966,-82.1479,2.0,34.62,1111122 
SCCF RECON,ioos:station:SCCF:12:1,2008-12-06T08:00:00Z,26.4966,-82.1479,2.03,34.65,1111122 
SCCF RECON,ioos:station:SCCF:12:1,2008-12-06T09:00:00Z,26.4966,-82.1479,2.08,34.66,1111122 
SCCF RECON,ioos:station:SCCF:12:1,2008-12-06T10:00:00Z,26.4966,-82.1479,2.14,34.73,1111122 
SCCF RECON,ioos:station:SCCF:12:1,2008-12-06T11:00:00Z,26.4966,-82.1479,2.2,34.75,1111122 
SCCF RECON,ioos:station:SCCF:12:1,2008-12-06T12:00:00Z,26.4966,-82.1479,2.24,34.77,1111122 
SCCF RECON,ioos:station:SCCF:12:1,2008-12-06T13:00:00Z,26.4966,-82.1479,2.23,34.77,1111122 
SCCF RECON,ioos:station:SCCF:12:1,2008-12-06T14:00:00Z,26.4966,-82.1479,2.19,34.69,1111122 
SCCF RECON,ioos:station:SCCF:12:1,2008-12-06T15:00:00Z,26.4966,-82.1479,2.116,34.72,1111122 
SCCF RECON,ioos:station:SCCF:12:1,2008-12-06T16:00:00Z,26.4966,-82.1479,2.04,34.71,1111122 
SCCF RECON,ioos:station:SCCF:12:1,2008-12-06T17:00:00Z,26.4966,-82.1479,1.995,34.7,1111122 
SCCF RECON,ioos:station:SCCF:12:1,2008-12-06T18:00:00Z,26.4966,-82.1479,1.98,34.64,1111122 
SCCF RECON,ioos:station:SCCF:12:1,2008-12-06T19:00:00Z,26.4966,-82.1479,1.985,34.46,1111122 
SCCF RECON,ioos:station:SCCF:12:1,2008-12-06T20:00:00Z,26.4966,-82.1479,2.03,34.72,1111122 
SCCF RECON,ioos:station:SCCF:12:1,2008-12-06T21:00:00Z,26.4966,-82.1479,2.12,34.81,1111122 
SCCF RECON,ioos:station:SCCF:12:1,2008-12-06T22:00:00Z,26.4966,-82.1479,2.237,34.83,1111122 
SCCF RECON,ioos:station:SCCF:12:1,2008-12-06T23:00:00Z,26.4966,-82.1479,2.319,34.73,1111122 
SCCF RECON,ioos:station:SCCF:12:1,2008-12-07T00:00:00Z,26.4966,-82.1479,2.37,34.62,1111122 
SCCF RECON,ioos:station:SCCF:12:1,2008-12-07T01:00:00Z,26.4966,-82.1479,2.4,34.51,1111122 
SCCF RECON,ioos:station:SCCF:12:1,2008-12-07T02:00:00Z,26.4966,-82.1479,2.35,34.32,1111122 
SCCF RECON,ioos:station:SCCF:12:1,2008-12-07T03:00:00Z,26.4966,-82.1479,2.28,34.25,1111122 
SCCF RECON,ioos:station:SCCF:12:1,2008-12-07T04:00:00Z,26.4966,-82.1479,2.19,34.14,1111122 
SCCF RECON,ioos:station:SCCF:12:1,2008-12-07T05:00:00Z,26.4966,-82.1479,2.1,34.15,1111122 
SCCF RECON,ioos:station:SCCF:12:1,2008-12-07T06:00:00Z,26.4966,-82.1479,2.02,34.18,1111122 
SCCF RECON,ioos:station:SCCF:12:1,2008-12-07T07:00:00Z,26.4966,-82.1479,1.93,34.28,1111122 
SCCF RECON,ioos:station:SCCF:12:1,2008-12-07T08:00:00Z,26.4966,-82.1479,1.891,34.4,1111122 
SCCF RECON,ioos:station:SCCF:12:1,2008-12-07T09:00:00Z,26.4966,-82.1479,1.93,34.66,1111122 
SCCF RECON,ioos:station:SCCF:12:1,2008-12-07T10:00:00Z,26.4966,-82.1479,2.03,34.65,1111122 
SCCF RECON,ioos:station:SCCF:12:1,2008-12-07T11:00:00Z,26.4966,-82.1479,2.158,34.63,1111122 
SCCF RECON,ioos:station:SCCF:12:1,2008-12-07T12:00:00Z,26.4966,-82.1479,2.205,34.6,1111122 
SCCF RECON,ioos:station:SCCF:12:1,2008-12-07T13:00:00Z,26.4966,-82.1479,2.221,34.59,1111122 
SCCF RECON,ioos:station:SCCF:12:1,2008-12-07T14:00:00Z,26.4966,-82.1479,2.233,34.58,1111122 
SCCF RECON,ioos:station:SCCF:12:1,2008-12-07T15:00:00Z,26.4966,-82.1479,2.129,34.56,1111122 
SCCF RECON,ioos:station:SCCF:12:1,2008-12-07T16:00:00Z,26.4966,-82.1479,2.036,34.55,1111122 
SCCF RECON,ioos:station:SCCF:12:1,2008-12-07T17:00:00Z,26.4966,-82.1479,1.962,34.58,1111122 
SCCF RECON,ioos:station:SCCF:12:1,2008-12-07T18:00:00Z,26.4966,-82.1479,1.921,34.58,1111122 
SCCF RECON,ioos:station:SCCF:12:1,2008-12-07T19:00:00Z,26.4966,-82.1479,1.909,34.61,1111122 
SCCF RECON,ioos:station:SCCF:12:1,2008-12-07T20:00:00Z,26.4966,-82.1479,1.922,34.69,1111122 
SCCF RECON,ioos:station:SCCF:12:1,2008-12-07T21:00:00Z,26.4966,-82.1479,1.962,34.73,1111122 
SCCF RECON,ioos:station:SCCF:12:1,2008-12-07T22:00:00Z,26.4966,-82.1479,2.025,34.88,1111122 
SCCF RECON,ioos:station:SCCF:12:1,2008-12-07T23:00:00Z,26.4966,-82.1479,2.114,34.96,1111122 
SCCF RECON,ioos:station:SCCF:12:1,2008-12-08T00:00:00Z,26.4966,-82.1479,2.212,34.93,1111122 
SCCF RECON,ioos:station:SCCF:12:1,2008-12-08T01:00:00Z,26.4966,-82.1479,2.286,34.9,1111122 
SCCF RECON,ioos:station:SCCF:12:1,2008-12-08T02:00:00Z,26.4966,-82.1479,2.309,34.9,1111122 
SCCF RECON,ioos:station:SCCF:12:1,2008-12-08T03:00:00Z,26.4966,-82.1479,2.256,34.92,1111122 
SCCF RECON,ioos:station:SCCF:12:1,2008-12-08T04:00:00Z,26.4966,-82.1479,2.167,34.89,1111122 
SCCF RECON,ioos:station:SCCF:12:1,2008-12-08T05:00:00Z,26.4966,-82.1479,2.051,34.94,1111122 
SCCF RECON,ioos:station:SCCF:12:1,2008-12-08T06:00:00Z,26.4966,-82.1479,1.946,34.98,1111122 
SCCF RECON,ioos:station:SCCF:12:1,2008-12-08T07:00:00Z,26.4966,-82.1479,1.838,34.99,1111122 
SCCF RECON,ioos:station:SCCF:12:1,2008-12-08T08:00:00Z,26.4966,-82.1479,1.75,35.06,1111122 
SCCF RECON,ioos:station:SCCF:12:1,2008-12-08T09:00:00Z,26.4966,-82.1479,1.696,35.07,1111122 
SCCF RECON,ioos:station:SCCF:12:1,2008-12-08T10:00:00Z,26.4966,-82.1479,1.714,35.13,1111122 
SCCF RECON,ioos:station:SCCF:12:1,2008-12-08T11:00:00Z,26.4966,-82.1479,1.836,34.98,1111122 
SCCF RECON,ioos:station:SCCF:12:1,2008-12-08T12:00:00Z,26.4966,-82.1479,1.963,34.98,1111122 
SCCF RECON,ioos:station:SCCF:12:1,2008-12-08T13:00:00Z,26.4966,-82.1479,2.082,34.94,1111122 
SCCF RECON,ioos:station:SCCF:12:1,2008-12-08T14:00:00Z,26.4966,-82.1479,2.17,35.0,1111122 
SCCF RECON,ioos:station:SCCF:12:1,2008-12-08T15:00:00Z,26.4966,-82.1479,2.21,34.96,1111122 
SCCF RECON,ioos:station:SCCF:12:1,2008-12-08T16:00:00Z,26.4966,-82.1479,2.21,35.28,1111122 
SCCF RECON,ioos:station:SCCF:12:1,2008-12-08T17:00:00Z,26.4966,-82.1479,2.162,35.09,1111122 
SCCF RECON,ioos:station:SCCF:12:1,2008-12-08T18:00:00Z,26.4966,-82.1479,2.108,34.89,1111122 
SCCF RECON,ioos:station:SCCF:12:1,2008-12-08T19:00:00Z,26.4966,-82.1479,2.09,34.66,1111122 
SCCF RECON,ioos:station:SCCF:12:1,2008-12-08T20:00:00Z,26.4966,-82.1479,2.13,34.77,1111122 
SCCF RECON,ioos:station:SCCF:12:1,2008-12-08T21:00:00Z,26.4966,-82.1479,2.182,34.64,1111122 
SCCF RECON,ioos:station:SCCF:12:1,2008-12-08T22:00:00Z,26.4966,-82.1479,2.25,34.91,1111122 
SCCF RECON,ioos:station:SCCF:12:1,2008-12-08T23:00:00Z,26.4966,-82.1479,2.33,34.95,1111122 
SCCF RECON,ioos:station:SCCF:12:1,2008-12-09T00:00:00Z,26.4966,-82.1479,2.41,35.01,1111122 
SCCF RECON,ioos:station:SCCF:12:1,2008-12-09T01:00:00Z,26.4966,-82.1479,2.457,34.91,1111122 
SCCF RECON,ioos:station:SCCF:12:1,2008-12-09T02:00:00Z,26.4966,-82.1479,2.472,34.65,1111122 
SCCF RECON,ioos:station:SCCF:12:1,2008-12-09T03:00:00Z,26.4966,-82.1479,2.445,34.6,1111122 
SCCF RECON,ioos:station:SCCF:12:1,2008-12-09T04:00:00Z,26.4966,-82.1479,2.379,34.54,1111122 
SCCF RECON,ioos:station:SCCF:12:1,2008-12-09T05:00:00Z,26.4966,-82.1479,2.25,33.92,1111122 
SCCF RECON,ioos:station:SCCF:12:1,2008-12-09T06:00:00Z,26.4966,-82.1479,2.108,33.77,1111122 
SCCF RECON,ioos:station:SCCF:12:1,2008-12-09T07:00:00Z,26.4966,-82.1479,1.972,33.52,1111122 
SCCF RECON,ioos:station:SCCF:12:1,2008-12-09T08:00:00Z,26.4966,-82.1479,1.848,33.66,1111122 
SCCF RECON,ioos:station:SCCF:12:1,2008-12-09T09:00:00Z,26.4966,-82.1479,1.745,34.16,1111122 
SCCF RECON,ioos:station:SCCF:12:1,2008-12-09T10:00:00Z,26.4966,-82.1479,1.703,34.49,1111122 
SCCF RECON,ioos:station:SCCF:12:1,2008-12-09T11:00:00Z,26.4966,-82.1479,1.807,34.17,1111122 
SCCF RECON,ioos:station:SCCF:12:1,2008-12-09T12:00:00Z,26.4966,-82.1479,1.97,34.3,1111122 
SCCF RECON,ioos:station:SCCF:12:1,2008-12-09T13:00:00Z,26.4966,-82.1479,2.11,34.35,1111122 
SCCF RECON,ioos:station:SCCF:12:1,2008-12-09T14:00:00Z,26.4966,-82.1479,2.222,34.25,1111122 
SCCF RECON,ioos:station:SCCF:12:1,2008-12-09T15:00:00Z,26.4966,-82.1479,2.308,33.94,1111122 
SCCF RECON,ioos:station:SCCF:12:1,2008-12-09T16:00:00Z,26.4966,-82.1479,2.36,33.88,1111122 
SCCF RECON,ioos:station:SCCF:12:1,2008-12-09T17:00:00Z,26.4966,-82.1479,2.344,33.61,1111122 
SCCF RECON,ioos:station:SCCF:12:1,2008-12-09T18:00:00Z,26.4966,-82.1479,2.278,33.52,1111122 
SCCF RECON,ioos:station:SCCF:12:1,2008-12-09T19:00:00Z,26.4966,-82.1479,2.216,33.55,1111122 
SCCF RECON,ioos:station:SCCF:12:1,2008-12-09T20:00:00Z,26.4966,-82.1479,2.21,33.48,1111122 
SCCF RECON,ioos:station:SCCF:12:1,2008-12-09T21:00:00Z,26.4966,-82.1479,2.267,33.55,1111122 
SCCF RECON,ioos:station:SCCF:12:1,2008-12-09T22:00:00Z,26.4966,-82.1479,2.326,33.58,1111122 
SCCF RECON,ioos:station:SCCF:12:1,2008-12-09T23:00:00Z,26.4966,-82.1479,2.39,33.76,1111122 
SCCF RECON,ioos:station:SCCF:12:1,2008-12-10T00:00:00Z,26.4966,-82.1479,2.474,33.88,1111122 
SCCF RECON,ioos:station:SCCF:12:1,2008-12-10T01:00:00Z,26.4966,-82.1479,2.56,33.81,1111122 
SCCF RECON,ioos:station:SCCF:12:1,2008-12-10T02:00:00Z,26.4966,-82.1479,2.59,33.85,1111122 
SCCF RECON,ioos:station:SCCF:12:1,2008-12-10T03:00:00Z,26.4966,-82.1479,2.593,33.89,1111122 
SCCF RECON,ioos:station:SCCF:12:1,2008-12-10T04:00:00Z,26.4966,-82.1479,2.55,33.93,1111122 
SCCF RECON,ioos:station:SCCF:12:1,2008-12-10T05:00:00Z,26.4966,-82.1479,2.457,33.52,1111122 
SCCF RECON,ioos:station:SCCF:12:1,2008-12-10T06:00:00Z,26.4966,-82.1479,2.319,33.05,1111122 
SCCF RECON,ioos:station:SCCF:12:1,2008-12-10T07:00:00Z,26.4966,-82.1479,2.159,33.12,1111122 
SCCF RECON,ioos:station:SCCF:12:1,2008-12-10T08:00:00Z,26.4966,-82.1479,2.01,33.06,1111122 
SCCF RECON,ioos:station:SCCF:12:1,2008-12-10T09:00:00Z,26.4966,-82.1479,1.878,33.24,1111122 
SCCF RECON,ioos:station:SCCF:12:1,2008-12-10T10:00:00Z,26.4966,-82.1479,1.767,33.26,1111122 
SCCF RECON,ioos:station:SCCF:12:1,2008-12-10T11:00:00Z,26.4966,-82.1479,1.717,33.33,1111122 
SCCF RECON,ioos:station:SCCF:12:1,2008-12-10T12:00:00Z,26.4966,-82.1479,1.798,33.29,1111122 
SCCF RECON,ioos:station:SCCF:12:1,2008-12-10T13:00:00Z,26.4966,-82.1479,1.952,33.32,1111122 
SCCF RECON,ioos:station:SCCF:12:1,2008-12-10T14:00:00Z,26.4966,-82.1479,2.071,33.38,1111122 
SCCF RECON,ioos:station:SCCF:12:1,2008-12-10T15:00:00Z,26.4966,-82.1479,2.169,33.34,1111122 
SCCF RECON,ioos:station:SCCF:12:1,2008-12-10T16:00:00Z,26.4966,-82.1479,2.271,33.04,1111122 
SCCF RECON,ioos:station:SCCF:12:1,2008-12-10T17:00:00Z,26.4966,-82.1479,2.336,32.77,1111122 
SCCF RECON,ioos:station:SCCF:12:1,2008-12-10T18:00:00Z,26.4966,-82.1479,2.29,32.61,1111122 
SCCF RECON,ioos:station:SCCF:12:1,2008-12-10T19:00:00Z,26.4966,-82.1479,2.273,32.62,1111122 
SCCF RECON,ioos:station:SCCF:12:1,2008-12-10T20:00:00Z,26.4966,-82.1479,2.237,32.59,1111122 
SCCF RECON,ioos:station:SCCF:12:1,2008-12-10T21:00:00Z,26.4966,-82.1479,2.208,32.59,1111122 
SCCF RECON,ioos:station:SCCF:12:1,2008-12-10T22:00:00Z,26.4966,-82.1479,2.211,32.48,1111122 
SCCF RECON,ioos:station:SCCF:12:1,2008-12-10T23:00:00Z,26.4966,-82.1479,2.277,32.45,1111122 
SCCF RECON,ioos:station:SCCF:12:1,2008-12-11T00:00:00Z,26.4966,-82.1479,2.374,32.45,1111122 
SCCF RECON,ioos:station:SCCF:12:1,2008-12-11T01:00:00Z,26.4966,-82.1479,2.467,32.42,1111122 
SCCF RECON,ioos:station:SCCF:12:1,2008-12-11T02:00:00Z,26.4966,-82.1479,2.547,32.4,1111122 
SCCF RECON,ioos:station:SCCF:12:1,2008-12-11T03:00:00Z,26.4966,-82.1479,2.59,32.37,1111122 
SCCF RECON,ioos:station:SCCF:12:1,2008-12-11T04:00:00Z,26.4966,-82.1479,2.567,32.45,1111122 
SCCF RECON,ioos:station:SCCF:12:1,2008-12-11T05:00:00Z,26.4966,-82.1479,2.486,32.45,1111122 
SCCF RECON,ioos:station:SCCF:12:1,2008-12-11T06:00:00Z,26.4966,-82.1479,2.373,32.65,1111122 
SCCF RECON,ioos:station:SCCF:12:1,2008-12-11T07:00:00Z,26.4966,-82.1479,2.219,32.83,1111122 
SCCF RECON,ioos:station:SCCF:12:1,2008-12-11T08:00:00Z,26.4966,-82.1479,2.045,32.91,1111122 
SCCF RECON,ioos:station:SCCF:12:1,2008-12-11T09:00:00Z,26.4966,-82.1479,1.88,32.88,1111122 
SCCF RECON,ioos:station:SCCF:12:1,2008-12-11T10:00:00Z,26.4966,-82.1479,1.733,32.85,1111122 
SCCF RECON,ioos:station:SCCF:12:1,2008-12-11T11:00:00Z,26.4966,-82.1479,1.617,32.72,1111122 
SCCF RECON,ioos:station:SCCF:12:1,2008-12-11T12:00:00Z,26.4966,-82.1479,1.56,32.66,1111122 
SCCF RECON,ioos:station:SCCF:12:1,2008-12-11T13:00:00Z,26.4966,-82.1479,1.659,32.6,1111122 
SCCF RECON,ioos:station:SCCF:12:1,2008-12-11T14:00:00Z,26.4966,-82.1479,1.826,32.64,1111122 
SCCF RECON,ioos:station:SCCF:12:1,2008-12-11T15:00:00Z,26.4966,-82.1479,2.134,32.39,1111122 
SCCF RECON,ioos:station:SCCF:12:1,2008-12-11T16:00:00Z,26.4966,-82.1479,2.374,32.41,1111122 
SCCF RECON,ioos:station:SCCF:12:1,2008-12-11T17:00:00Z,26.4966,-82.1479,2.425,32.44,1111122 